Other Public Products
Issued by NWS Grand Forks, ND

Home | Current Version | Previous Version | Graphics & Text | Print | Product List | Glossary On
Versions: 1 2 3 4 5 6 7 8 9 10 11 12 13 14 15 16 17 18 19 20 21 22 23 24 25 26 27 28 29 30 31 32 33 34 35 36 37 38 39 40 41 42 43 44 45 46 47 48 49 50
000
FPUS83 KFGF 262131
OPUFGF
PRAIRIE TO PINES WEATHER ROUNDUP
NATIONAL WEATHER SERVICE EASTERN NORTH DAKOTA/GRAND FORKS ND
400 PM CDT SUN MAR 26 2017

 **SATELLITE DATA USED TO AUGMENT SKY COVER AT AUTOMATED STATIONS**
 *****  WEATHER ACROSS EASTERN NORTH DAKOTA  *****

CITY           SKY/WX    TMP DP  RH WIND       PRES   REMARKS
GRAND FORKS    PTSUNNY   45  40  82 S6        29.94S
GRAND FORKS AF CLOUDY    49  41  75 SE5       29.94S
GRAND CITY NWS NOT AVBL
BUXTON         NOT AVBL
DEVILS LAKE    FAIR      51  41  68 NE5       29.92S
FARGO          CLOUDY    44  37  76 W5        29.95F
WAHPETON ARPT    N/A     45  34  65 W3        29.95S
$$

 *****  WEATHER ACROSS CENTRAL AND WESTERN NORTH DAKOTA  *****

CITY           SKY/WX    TMP DP  RH WIND       PRES   REMARKS
JAMESTOWN      CLOUDY    49  39  68 NE5       29.91F
BISMARCK       FAIR      62  36  37 E9        29.90F
MINOT          FAIR      59  41  51 E9        29.87F
MINOT AFB      FAIR      53  41  62 E7        29.86F
GARRISON         N/A     59  33  37 VRB6      29.88F
WILLISTON      FAIR      64  27  24 W10       29.85F
DICKINSON      PTSUNNY   58  26  29 VRB6      29.86F
HETTINGER      CLOUDY    56  32  40 CALM      29.90F
$$

 *****  OTHER OBSERVATIONS NORTHEAST NORTH DAKOTA  *****

CITY           SKY/WX    TMP DP  RH WIND       PRES   REMARKS
WALHALLA       NOT AVBL
LANGDON        FAIR      48  39  71 E6        29.93S
CAVALIER       CLOUDY    43  37  81 E6        29.95R
GRAFTON        MOCLDY    45  41  87 SE3       29.96F
CANDO          NOT AVBL
FORT TOTTEN      N/A     54  37  53 N5        29.95
ROLLA          FAIR      43  43 100 E6        29.93R
RUGBY          NOT AVBL
 ***** THE ABOVE OBSERVATIONS ARE NON NWS ARE NOT QUALITY
        CONTROLLED AND MAY MIS-REPORT RAIN FOR SNOW...
$$

 *****  OTHER OBSERVATIONS SOUTHEAST NORTH DAKOTA *****

CITY           SKY/WX    TMP DP  RH WIND       PRES   REMARKS
COOPERSTOWN    FAIR      50  41  71 CALM      29.92F
VALLEY CITY    MOCLDY    46  45  93 CALM      29.94S
OAKES          NOT AVBL
GWINNER        MOCLDY    52  39  62 MISG      29.93S
SHEYENNE NWR     N/A     49  36  60 NW5       29.95S
BUFFALO        NOT AVBL
WYNDMERE         N/A     46  37  71 NW3         N/A
 ***** THE ABOVE OBSERVATIONS ARE NON NWS ARE NOT QUALITY
       CONTROLLED AND MAY MIS-REPORT RAIN FOR SNOW...
$$

  *****  WEATHER ACROSS NORTHERN MINNESOTA  *****

CITY           SKY/WX    TMP DP  RH WIND       PRES   REMARKS
FLAG ISLAND    FAIR      37  32  81 SE6       29.93F
WARROAD        FAIR      43  37  81 W5        29.94F
ROSEAU         FAIR      45  37  76 SW3       29.94F
HALLOCK        FAIR      41  37  87 CALM      29.95S
THF RVR FALLS  CLOUDY   N/A N/A N/A NW6       29.96R
HALSTAD          N/A     44  37  77 SW2         N/A
FOSSTON        FAIR      50  36  57 CALM      29.93F
BAUDETTE       CLOUDY    47  34  60 VRB3      29.92F
WASKISH        PTSUNNY   45  34  65 W5        29.93F
CROOKSTON      CLOUDY    45  39  81 SW3       29.96S
$$
  *****  WEATHER ACROSS CENTRAL AND WEST MINNESOTA  *****

CITY           SKY/WX    TMP DP  RH WIND       PRES   REMARKS
BEMIDJI        FAIR      46  32  58 NW6       29.92F
PARK RAPIDS    PTSUNNY   46  31  55 NE5       29.91F
WADENA         CLOUDY    46  36  66 NW7       29.92R
DETROIT LAKES  FAIR      45  34  65 CALM      29.94S
MOORHEAD       CLOUDY    43  36  75 CALM      29.96F
FERGUS FALLS   CLOUDY    46  36  66 NW7       29.97S
ELBOW LAKE     CLOUDY    44  36  72 W7        29.93S
MORRIS MN      CLOUDY    48  37  66 NW6       29.92R
STAPLES        CLOUDY    45  32  61 CALM      29.92R
WHEATON        CLOUDY    45  36  70 W6        29.96S
$$
  *****  WEATHER ELSEWHERE ACROSS MINNESOTA  *****

CITY           SKY/WX    TMP DP  RH WIND       PRES   REMARKS
DULUTH         FOG       34  33  96 SE6       29.91S VSB 1/8
INTRNTL FALLS  FAIR      46  32  58 CALM      29.92F
ELY            CLOUDY    37  30  75 CALM      29.91S
CLOQUET        CLOUDY    36  34  93 E5        29.91F
BRAINERD       CLOUDY    43  33  68 N5        29.92S
HIBBING        CLOUDY    40  32  73 VRB3      29.91F
ALEXANDRIA     PTSUNNY   47  35  63 N6        29.92S
SAINT CLOUD    CLOUDY    40  37  89 N7        29.91S
MINNEAPOLIS    CLOUDY    44  36  73 NW7       29.90S
$$

  *****  WEATHER ACROSS SOUTH DAKOTA  *****

CITY           SKY/WX    TMP DP  RH WIND       PRES   REMARKS
SIOUX FALLS    CLOUDY    47  38  71 NE5       29.92F
BROOKINGS      CLOUDY    41  37  86 NW5       29.93S
WATERTOWN      CLOUDY    45  37  73 NW6       29.92S
HURON          CLOUDY    47  37  68 N5        29.93F
SISSETON         N/A     45  39  79 CALM      29.93F
ABERDEEN       PTSUNNY   45  36  70 W6        29.94F
MITCHELL       CLOUDY    47  38  71 NE6       29.93F
PIERRE         CLOUDY    43  38  82 W6        29.93S
MOBRIDGE       FAIR      53  34  48 VRB3      29.90F
RAPID CITY     LGT RAIN  41  38  89 N14       29.94S
$$

  *****  SOME WEATHER IN NEARBY STATES *****

CITY           SKY/WX    TMP DP  RH WIND       PRES   REMARKS
GLASGOW MT     FAIR      56  21  25 W15       29.90S
GREAT FALLS MT FAIR      54  15  21 W14       29.84F
CHEYENNE WY    PTSUNNY   45  34  65 N21G26    29.92F
SCOTTSBLUFF NE CLOUDY    53  37  54 NW14      29.91R
OMAHA NE       CLOUDY    49  41  74 N9        29.90F
DES MOINES IA  CLOUDY    48  44  86 W10       29.89S
DAVENPORT IA   CLOUDY    54  52  93 NW12      29.82F FOG
CHICAGO IL     CLOUDY    62  50  64 SW13      29.79F
EAU CLAIRE WI  CLOUDY    42  38  85 N5        29.87S
LA CROSSE WI   CLOUDY    43  39  86 NW8       29.87R FOG
$$

  *****  SOME NATIONAL WEATHER *****

CITY           SKY/WX    TMP DP  RH WIND       PRES   REMARKS
LA GUARDIA NY  CLOUDY    42  34  73 NE14      30.40F
RALEIGH NC     PTSUNNY   76  47  35 S12G21    30.13F
ATLANTA GA     PTSUNNY   78  53  41 SW13      30.05F
NEW ORLEANS LA FAIR      80  68  66 S15       29.99F
OKLAHOMA CITY  PTSUNNY   73  56  54 S17       29.73S
ALBUQUERQUE NM FAIR      64  24  21 NW16G23   29.93F
SALT LAKE CITY PTSUNNY   53  28  38 E3        30.00F
LOS ANGELES CA FAIR      65  55  70 W16       30.06F
BOISE ID       LGT RAIN  51  33  50 W12G21    29.93R
SEATTLE WA     LGT RAIN  46  45  96 NW6       29.77S
$$

*** WEATHER ACROSS MANITOBA...SASKATCHEWAN AND ONTARIO ***
                ***ONTARIO***

CITY           SKY/WX    TMP DP  RH WIND       PRES   REMARKS
GERALDTON      CLOUDY    36  25  64 SE5       29.93F
THUNDER BAY    LGT RAIN  34  34 100 E10       29.95F
SIOUX LOOKOUT  PTSUNNY   43  30  61 NW5       29.90F
TORONTO        CLOUDY    41  36  81 E9        30.04F
BIG TROUT LK   CLOUDY    39  30  70 W7        29.84S
PICKLE LAKE    PTSUNNY   45  28  53 S7        29.86F
DRYDEN         PTSUNNY   41  32  70 NW7       29.91F
KENORA         PTSUNNY   39  32  75 VRB5      29.93F
$$
                *** MANITOBA***

CITY           SKY/WX    TMP DP  RH WIND       PRES   REMARKS
BRANDON        MOSUNNY   43  36  75 E10       29.93S
DAUPHIN        PTSUNNY   41  34  75 NE10      29.93F
ISLAND LAKE    MOSUNNY   34  23  64 W9        29.91S
PILOT MOUND      N/A     43  36  75 E6          N/A
THE PAS        MOSUNNY   32  19  59 VRB2      29.97S
THOMPSON       CLOUDY    25  19  80 N8        29.95R WCI  16
WINNIPEG       MOSUNNY   43  36  75 N8        29.95S
LYNN LAKE      MOSUNNY   28  19  69 NE7       29.97S WCI  21
CHURCHILL      LGT SNOW  14  10  85 N13       30.00R BLWGSNOWWCI   0
GILLAM         CLOUDY    23  18  80 N15       29.91R WCI  10
$$
                ***SASKATCHEWAN***

CITY           SKY/WX    TMP DP  RH WIND       PRES   REMARKS
ESTEVAN        LGT RAIN  46  41  81 W12       29.87R
KINDERSLEY     PTSUNNY   39  34  81 E7        29.86S
LLOYDMINSTER   MOSUNNY   41  34  75 S5        29.87S
PRINCE ALBERT  PTSUNNY   32  27  80 E9        29.93S WCI  24
REGINA         PTSUNNY   54  21  28 W15       29.85R
YORKTON        LGT RAIN  39  36  87 SE7       29.89R


USA.gov is the U.S. government's official web portal to all federal, state and local government web resources and services.